Melilla, Spain

2:22 PM CEST on June 24, 2017 (GMT +0200)
Melilla

Weather History for GEML - November, 2012

Change the Weather History Date:

Monday, November 26, 2012

  Actual Average Record
Temperature  
Mean Temperature 62 °F -  
Max Temperature 65 °F 65 °F 75 °F (2000)
Min Temperature 59 °F 54 °F 44 °F (2013)
Degree Days  
Heating Degree Days 3    
Growing Degree Days 12 (Base 50)    
Moisture  
Dew Point 57 °F    
Average Humidity 81    
Maximum Humidity 94    
Minimum Humidity 59    
Precipitation  
Precipitation 0.00 in 0.07 in - ()
Sea Level Pressure  
Sea Level Pressure 29.95 in    
Wind  
Wind Speed 2 mph ()    
Max Wind Speed 8 mph    
Max Gust Speed -    
Visibility 6.2 miles    
Events      
Averages and records for this station are not official NWS values.
T = Trace of Precipitation, MM = Missing Value Source: Averaged Metar Reports

Daily Weather History Graph

Daily Weather History Graph

Search for Another Location

Airport or City:

Trip Planner

Search our weather history database for the weather conditions in past years. The results will help you decide how hot, cold, wet, or windy it might be!

Date:

Astronomy

Nov. 26, 2012 Rise Set
Actual Time 7:57 AM CET 6:00 PM CET
Civil Twilight 7:30 AM CET 6:28 PM CET
Nautical Twilight 6:58 AM CET 6:59 PM CET
Astronomical Twilight 6:28 AM CET 7:29 PM CET
Moon 4:41 PM CET (11/26) 5:57 AM CET (11/26)
Length of Visible Light 10h 57m
Length of Day
10h 02m
Waxing Gibbous, 96% of the Moon is Illuminated
Nov 26
Waxing Gibbous
Nov 28
Full
Dec 6
Last Quarter
Dec 13
New
Dec 20
First Quarter

Hourly Weather History & Observations

Time (CET) Temp. Dew Point Humidity Pressure Visibility Wind Dir Wind Speed Gust Speed Precip Events Conditions
6:00 AM 59.0 °F 57.2 °F 94% 29.98 in 6.2 mi Variable 1.2 mph - N/A   Mostly Cloudy
6:30 AM 59.0 °F 57.2 °F 94% 29.98 in 6.2 mi Calm Calm - N/A   Mostly Cloudy
7:00 AM 60 °F 56 °F 83% 29.99 in 7 mi West 2.3 mph - -   Mostly Cloudy
7:00 AM 60.8 °F 57.2 °F 88% 29.98 in 6.2 mi West 2.3 mph - N/A   Mostly Cloudy
7:30 AM 60.8 °F 57.2 °F 88% 30.01 in 6.2 mi Variable 2.3 mph - N/A   Mostly Cloudy
8:00 AM 59.0 °F 55.4 °F 88% 29.98 in 6.2 mi Calm Calm - N/A   Scattered Clouds
8:30 AM 59.0 °F 55.4 °F 88% 29.98 in 6.2 mi Variable 1.2 mph - N/A   Scattered Clouds
9:00 AM 59.0 °F 57.2 °F 94% 30.01 in 5.0 mi Calm Calm - N/A   Scattered Clouds
9:30 AM 60.8 °F 57.2 °F 88% 29.98 in 5.0 mi NW 2.3 mph - N/A   Scattered Clouds
10:00 AM 62.6 °F 59.0 °F 88% 29.98 in 5.0 mi Calm Calm - N/A   Scattered Clouds
10:30 AM 62.6 °F 59.0 °F 88% 30.01 in 5.0 mi Variable 2.3 mph - N/A   Scattered Clouds
11:00 AM 64.4 °F 59.0 °F 83% 30.01 in 6.2 mi West 4.6 mph - N/A   Mostly Cloudy
11:30 AM 64.4 °F 57.2 °F 77% 29.98 in 6.2 mi WNW 3.5 mph - N/A   Scattered Clouds
12:00 PM 64.4 °F 57.2 °F 77% 29.98 in 6.2 mi West 3.5 mph - N/A   Scattered Clouds
12:30 PM 66.2 °F 57.2 °F 73% 29.98 in 6.2 mi WNW 5.8 mph - N/A   Scattered Clouds
1:00 PM 66 °F 55 °F 59% 29.97 in 7 mi NW 2.3 mph - -   Partly Cloudy
1:00 PM 64.4 °F 57.2 °F 77% 29.98 in 6.2 mi Variable 2.3 mph - N/A   Scattered Clouds
1:30 PM 64.4 °F 57.2 °F 77% 29.95 in 6.2 mi WNW 4.6 mph - N/A   Mostly Cloudy
2:00 PM 64.4 °F 57.2 °F 77% 29.95 in 6.2 mi WNW 5.8 mph - N/A   Mostly Cloudy
2:30 PM 64.4 °F 57.2 °F 77% 29.95 in 6.2 mi West 8.1 mph - N/A   Mostly Cloudy
3:00 PM 64.4 °F 57.2 °F 77% 29.92 in 6.2 mi West 8.1 mph - N/A   Partly Cloudy
3:30 PM 64.4 °F 57.2 °F 77% 29.92 in 6.2 mi West 4.6 mph - N/A   Partly Cloudy
4:00 PM 64.4 °F 55.4 °F 73% 29.92 in 6.2 mi West 6.9 mph - N/A   Partly Cloudy
4:30 PM 64.4 °F 57.2 °F 77% 29.92 in 6.2 mi WNW 6.9 mph - N/A   Partly Cloudy
5:00 PM 62.6 °F 57.2 °F 82% 29.89 in 6.2 mi West 4.6 mph - N/A   Partly Cloudy
5:30 PM 62.6 °F 57.2 °F 82% 29.89 in - WNW 3.5 mph - N/A   Clear
6:00 PM 62.6 °F 55.4 °F 77% 29.89 in - Variable 2.3 mph - N/A   Clear
6:30 PM 62.6 °F 55.4 °F 77% 29.89 in - Variable 2.3 mph - N/A   Clear
7:00 PM 61 °F 55 °F 76% 29.89 in 9 mi West 2.3 mph - -   Clear
7:00 PM 60.8 °F 55.4 °F 82% 29.89 in - West 2.3 mph - N/A   Clear
7:30 PM 60.8 °F 57.2 °F 88% 29.89 in - WNW 4.6 mph - N/A   Clear